Regional Weather Roundup
Issued by NWS

Home | Current Version | Previous Version | Text Only | Print | Product List | Glossary Off
Versions: 1 2 3 4 5 6 7 8 9 10 11 12 13 14 15 16 17 18 19 20 21 22 23 24 25 26 27 28 29 30 31 32 33 34 35 36 37 38 39 40 41 42 43 44 45 46 47 48 49 50

000
ASUS43 KMKX 190811
RWRWI

WISCONSIN REGIONAL WEATHER ROUNDUP
NATIONAL WEATHER SERVICE MILWAUKEE/SULLIVAN WI
200 AM CST FRI DEC 19 2014

NOTE: "FAIR" INDICATES FEW OR NO CLOUDS BELOW 12,000 FEET WITH NO
SIGNIFICANT WEATHER AND/OR OBSTRUCTIONS TO VISIBILITY.

WIZ001-002-006>008-014>016-023>028-190900-
NORTHWEST WISCONSIN

CITY           SKY/WX    TMP DP  RH WIND       PRES   REMARKS
SUPERIOR ARPT  CLOUDY    23  20  89 SW5       30.28S WCI  17
ASHLAND        CLOUDY    21  19  92 S3        30.29R
HAYWARD        CLOUDY    22  19  89 S8        30.25R WCI  12
SIREN          CLOUDY    23  20  87 SW6       30.27R WCI  15
CUMBERLAND     CLOUDY    21  19  93 S5        30.25S WCI  15
RICE LAKE      CLOUDY    23  20  89 SW6       30.28R WCI  15
CHETEK         CLOUDY    22  19  88 S5        30.27R WCI  16
LADYSMITH      CLOUDY    24  21  89 CALM      30.26S
EAU CLAIRE     CLOUDY    24  19  81 S3        30.27S
MENOMONIE      CLOUDY    25  20  83 SE3       30.28S
NEW RICHMOND   CLOUDY    22  19  88 SW6       30.28R WCI  14
OSCEOLA        CLOUDY    23  19  83 S6        30.31R WCI  15
$$

WIZ003>005-009-010-017-018-190900-
NORTH CENTRAL WISCONSIN

CITY           SKY/WX    TMP DP  RH WIND       PRES   REMARKS
MANITOWISH WTR CLOUDY     1  -1  88 CALM      30.23R
ARBOR VITAE    FAIR       5   1  85 CALM      30.23R
WOODRUFF       FAIR       5   1  85 CALM      30.23R
RHINELANDER    CLOUDY     4   0  83 CALM      30.23R
EAGLE RIVER    CLEAR      3  -2  81 CALM      30.23R
LAND O LAKES   PTCLDY    -3  -7  83 CALM      30.23R
PHILLIPS       CLOUDY    17  15  93 CALM      30.23S
TOMAHAWK       MOCLDY     8   6  89 CALM      30.24S
MEDFORD        CLOUDY    20  19  93 CALM      30.23S
MERRILL        PTCLDY    10   8  92 CALM      30.25S
$$

WIZ029-030-035-036-043>047-190900-
CENTRAL WISCONSIN

CITY           SKY/WX    TMP DP  RH WIND       PRES   REMARKS
WAUSAU         CLEAR     17  14  88 NW5       30.24S WCI  10
MOSINEE        CLEAR     18  18 100 NW5       30.26S WCI  11
MARSHFIELD     CLOUDY    24  19  81 CALM      30.25S
STEVENS POINT  CLEAR     10   7  89 CALM      30.27R
WAUPACA        CLEAR     18  15  88 CALM      30.28R
WAUTOMA        CLEAR     14  12  92 CALM      30.28S
WISC RAPIDS    CLOUDY    23  19  85 CALM      30.28S
CAMP DOUGLAS   CLOUDY    24  24  99 W7        30.28R WCI  16
$$

WIZ011>013-019>022-031-037>040-048>050-190900-
NORTHEAST WISCONSIN

CITY           SKY/WX    TMP DP  RH WIND       PRES   REMARKS
ANTIGO         PTCLDY    10   8  92 CALM      30.24R
SHAWANO        CLEAR     17  14  89 CALM      30.28R
OCONTO         PTCLDY    15  15  98 CALM      30.29R
STURGEON BAY   CLEAR     21  14  73 CALM      30.27R
GREEN BAY      CLEAR     18  15  88 CALM      30.28R
MANITOWOC      CLOUDY    25  22  88 NW8       30.27R WCI  16
APPLETON       CLEAR     18  18 100 W8        30.27R WCI   7
CLINTONVILLE   CLEAR     18  16  93 CALM      30.27R
OSHKOSH        CLEAR     20  16  84 W6        30.27R WCI  12
$$

WIZ032>034-041-042-053>061-190900-
SOUTHWEST WISCONSIN

CITY           SKY/WX    TMP DP  RH WIND       PRES   REMARKS
LA CROSSE      CLOUDY    26  18  71 SW6       30.30R WCI  19
SPARTA         CLOUDY    25  20  82 CALM      30.30R
VIROQUA        CLOUDY    23  20  89 NW3       30.25S
BOSCOBEL       CLOUDY    26  18  71 CALM      30.30R
PRAIRIE DU CHI CLOUDY    26  18  72 CALM      30.29S
PLATTEVILLE    CLOUDY    24  20  82 CALM      30.28R
$$

WIZ056-057-062-063-064-067-068-190900-
SOUTH CENTRAL WISCONSIN

CITY           SKY/WX    TMP DP  RH WIND       PRES   REMARKS
REEDSBURG      CLOUDY    24  20  83 SW5       30.27R WCI  19
BARABOO/DELLS  CLOUDY    25  20  83 CALM      30.27R
LONE ROCK      CLOUDY    29  19  66 SW5       30.30R WCI  24
MINERAL POINT  CLOUDY    27  21  80 CALM      30.26R
MADISON        CLOUDY    26  20  77 CALM      30.27S
MIDDLETON      CLOUDY    28  22  79 W5        30.28R WCI  22
WATERTOWN      CLOUDY    26  22  88 CALM      30.27S
MONROE         CLOUDY    27  23  86 CALM      30.26R
JANESVILLE     CLOUDY    28  23  80 CALM      30.27R
$$

WIZ051-052-058>065-066-070>072-190900-
SOUTHEAST WISCONSIN

CITY           SKY/WX    TMP DP  RH WIND       PRES   REMARKS
MILWAUKEE      CLOUDY    28  20  71 W8        30.27R WCI  20
WAUKESHA       CLOUDY    25  21  86 NW8       30.27S WCI  16
MILWAUKEE/TIMM CLOUDY    28  21  74 NW6       30.28R WCI  22
RACINE         CLOUDY    28  21  75 W8        30.28R WCI  20
BURLINGTON     CLOUDY    25  20  82 NW3       30.28R
KENOSHA        CLOUDY    27  22  81 W7        30.26S WCI  19
FOND DU LAC    CLEAR     17  13  84 CALM      30.28R
SHEBOYGAN      CLOUDY    23  18  81 NW8       30.26R WCI  14
WEST BEND      CLEAR     21  18  86 W3        30.26S
JUNEAU         PTCLDY    19  18  95 CALM      30.28R
$$

LSZ147-162-190900-
LAKE SUPERIOR

STATION/POSITION TIME  TEMP    WIND        PRES    WAVE
                       AIR SEA DIR/SP/G            HT/PER
                 (UTC) (F)     (DEG/KT/KT) (MB)    (FT/S)
DEVILS ISLAND    0800   25     210/  5/  7 1026.6R
PORT WING        0740   23     160/  3/  5 1025.4S
SAXON HARBOR     0700   17      CALM  /  3 1025.4S
$$

LMZ867-665-643>646-190900-
LAKE MICHIGAN

STATION/POSITION TIME  TEMP    WIND        PRES    WAVE
                       AIR SEA DIR/SP/G            HT/PER
                 (UTC) (F)     (DEG/KT/KT) (MB)    (FT/S)
CHAMBERS ISLAND  0700   27     340/  7/  9 1024.4F
NORTHPORT PIER   0703   27      20/  6/  8 1024.4F
SISTER BAY       0628           CALM  /  5   N/A
ALGOMA LAKESHORE 0714          330/  8/  9   N/A
KEWAUNEE LAKESHO 0700   22     300/  5/  8 1023.4F
SHEBOYGAN LAKESH 0800   25 34  280/  9/ 10 1026.1R
PORT WASHINGTON  0740   25     300/  6/  9 1025.7R
MILWAUKEE LAKESH 0700   28     310/  7/ 10   N/A
KENOSHA   LAKESH 0800   28     280/  8/ 10 1025.1R
$$

TC  - TEMPERATURE IN CELSIUS
VSB - VISIBILITY IN STATUTE MILES
WCI - WIND CHILL INDEX
HX  - HEAT INDEX



USA.gov is the U.S. government's official web portal to all federal, state and local government web resources and services.